Temp
61 61 61 61 61 61 61 61 61 61 62 62 62 63 63 63 62 79 84 87 91 75 76 97 97 97 97 95 99 99 84 82 87 89 94 100 96 103 104 97 98 98 100 100 101
61 61 61 61 61 60 60 60 60 61 61 62 62 62 63 63 81 86 88 75 75 75 92 92 90 94 91 92 95 90 84 86 97 98 97 98 98 98 94 94 92 94 98 99 100
60 60 60 60 60 60 60 60 60 60 61 62 62 62 63 68 80 89 76 75 75 80 95 97 97 94 88 93 93 91 83 94 98 97 100 97 97 99 94 90 94 92 92 96 98
60 60 60 60 60 60 59 59 60 60 61 61 61 62 63 81 73 91 76 76 76 93 96 92 91 88 85 86 94 86 92 94 94 96 96 94 99 95 96 97 101 99 97 97 96
59 59 59 59 59 59 59 59 59 60 60 60 61 62 73 80 85 90 77 79 92 92 92 90 86 88 83 88 91 88 90 95 95 94 95 98 95 94 95 99 102 100 97 96 97
58 58 59 59 59 59 59 59 59 59 59 60 62 62 80 76 98 97 96 93 96 94 93 94 89 92 89 88 88 92 90 92 93 93 94 92 94 94 97 98 98 96 95 97 97
58 58 58 58 59 59 59 59 58 59 60 61 63 78 83 84 99 100 98 96 98 97 91 96 96 88 88 86 92 91 83 88 90 91 90 93 87 87 97 96 94 93 94 96 96
57 57 57 58 58 59 59 59 58 60 61 63 64 82 78 99 101 97 99 96 98 99 96 96 96 91 88 91 85 81 82 77 88 89 90 89 79 90 96 92 91 92 93 94 95
57 57 57 58 58 58 58 58 61 63 64 65 76 81 79 83 89 96 98 92 94 95 96 93 92 87 86 79 75 79 73 76 82 91 88 85 81 93 96 92 90 91 93 93 94
57 56 57 57 57 58 57 58 63 63 72 85 87 78 85 84 92 95 98 96 91 89 87 85 85 79 81 78 66 72 74 79 78 87 85 83 81 90 96 93 90 91 92 92 93
57 56 56 56 57 57 68 83 80 76 83 81 83 82 84 90 93 90 96 91 90 85 76 82 76 72 77 79 80 80 79 76 83 89 83 80 82 85 92 91 90 90 91 91 92
56 56 56 56 56 57 70 82 78 80 71 86 87 86 90 91 80 87 95 82 81 74 80 78 71 80 84 83 79 77 75 75 81 86 81 80 79 86 90 90 90 90 91 92 92
56 56 56 56 56 68 84 81 89 85 72 82 85 84 85 87 79 83 89 84 79 75 77 73 78 82 80 77 73 74 72 74 75 81 81 77 75 80 87 90 91 92 93 93 93
55 55 55 55 64 87 84 88 91 85 67 74 78 83 85 85 76 90 91 85 80 75 77 77 82 77 76 73 76 68 79 77 76 74 67 78 63 76 82 84 86 89 90 92 93
55 55 54 53 77 83 83 90 89 81 53 75 79 90 86 80 81 81 92 85 75 76 77 73 76 75 71 74 79 73 81 77 75 72 71 72 68 75 84 79 83 87 89 91 93
55 55 54 74 84 87 89 88 82 63 53 69 77 76 78 80 79 81 82 86 84 76 78 76 85 80 77 80 80 79 75 74 74 72 60 69 70 72 78 81 84 88 90 91 94
54 54 58 78 76 88 88 81 63 57 74 67 69 72 73 73 74 75 73 71 68 62 64 72 74 80 80 74 77 74 68 56 56 58 56 72 69 72 81 83 87 87 89 89 91
53 53 67 84 86 86 81 70 53 67 69 73 70 71 67 73 72 72 70 69 75 72 67 63 60 74 79 74 71 71 68 59 47 53 62 73 63 73 85 87 86 87 88 88 88
52 81 82 82 85 83 73 60 62 64 66 64 67 63 66 72 68 70 69 70 74 76 63 62 63 79 80 79 76 70 65 74 63 66 62 69 72 78 80 81 83 83 84 85 86
65 76 78 83 83 77 67 57 65 65 65 65 57 64 60 66 65 66 67 73 70 69 71 66 57 72 77 78 78 73 77 62 63 49 48 62 65 67 73 76 80 81 82 84 84
71 71 78 81 81 72 62 62 62 66 65 59 59 58 60 61 64 62 64 65 65 67 68 67 62 63 72 67 66 67 65 67 66 62 52 52 62 78 77 79 78 81 83 84 84
70 66 78 79 69 69 62 58 55 63 65 62 61 59 57 58 57 58 58 63 63 64 59 67 61 54 62 74 77 72 67 67 54 53 60 60 62 81 79 81 80 81 83 84 86
62 67 77 75 56 57 61 59 62 58 56 56 54 59 59 54 49 56 58 63 60 61 52 56 54 47 54 64 69 63 68 67 65 62 56 53 60 80 81 80 81 80 82 83 83
63 57 64 68 63 53 51 54 53 60 55 56 54 56 54 51 55 51 56 62 60 59 53 54 51 49 47 56 63 59 62 66 62 54 55 59 64 72 76 76 78 79 81 83 83
62 55 53 51 53 52 53 52 49 49 55 56 51 53 50 43 47 49 53 57 60 59 57 53 44 50 54 57 59 58 57 60 53 60 56 61 63 70 75 75 74 72 79 81 81
55 52 56 55 53 52 49 50 47 49 50 47 47 50 49 43 44 40 47 48 47 54 51 53 43 47 45 54 55 53 56 58 60 60 62 63 62 73 76 78 76 76 77 77 78
62 59 53 50 51 51 51 48 48 51 52 53 51 49 46 48 49 52 53 52 51 46 45 44 42 39 35 48 49 41 51 56 58 61 61 56 64 72 71 72 74 75 76 76 78
MSLP
1018.56 1017.99 1017.43 1016.91 1016.42 1015.90 1015.43 1014.98 1014.54 1014.18 1013.87 1013.59 1013.34 1013.13 1012.91 1012.74 1012.40 1011.71 1009.42 1007.96 1007.59 1008.53 1008.87 1007.62 1007.20 1006.62 1006.27 1005.11 1004.40 1003.72 1002.51 1000.17 998.67 997.61 996.80 997.38 998.60 998.93 999.80 1000.97 1002.05 1002.73 1002.40 1003.98 1005.62
1018.61 1018.04 1017.45 1016.83 1016.25 1015.73 1015.24 1014.78 1014.34 1013.94 1013.62 1013.36 1013.08 1012.90 1012.72 1012.56 1011.26 1008.85 1007.16 1007.84 1008.32 1008.69 1008.30 1006.96 1006.16 1005.81 1005.11 1004.37 1003.58 1003.14 1001.51 999.80 998.41 997.65 997.39 997.78 998.72 999.60 1000.68 1001.41 1002.46 1003.18 1003.81 1005.01 1005.44
1018.53 1017.92 1017.31 1016.68 1016.03 1015.43 1014.90 1014.46 1014.06 1013.65 1013.34 1013.03 1012.86 1012.63 1012.45 1012.19 1009.93 1006.56 1007.14 1007.43 1008.21 1008.62 1007.53 1006.36 1005.53 1005.00 1004.38 1003.58 1002.67 1002.16 1001.06 999.48 998.53 998.97 998.18 998.02 998.84 1000.02 1000.73 1001.20 1002.10 1002.89 1004.14 1004.78 1005.20
1018.46 1017.77 1017.10 1016.44 1015.80 1015.08 1014.48 1014.03 1013.63 1013.28 1013.00 1012.83 1012.52 1012.44 1012.20 1011.33 1007.37 1006.49 1007.55 1007.75 1008.22 1007.85 1006.97 1006.33 1005.47 1004.50 1003.79 1002.58 1002.03 1001.55 1000.88 1000.36 999.83 999.46 999.58 998.78 999.11 999.42 1000.39 1000.46 1001.53 1002.83 1004.11 1004.55 1004.86
1018.34 1017.59 1016.84 1016.13 1015.43 1014.70 1014.04 1013.50 1013.16 1012.90 1012.63 1012.51 1012.41 1012.18 1011.94 1009.21 1006.27 1006.63 1007.33 1007.85 1007.80 1007.45 1006.30 1005.58 1004.96 1004.07 1003.16 1002.35 1001.61 1000.98 1000.77 1000.23 1000.32 1000.62 1000.24 999.58 999.28 999.76 1000.37 1000.92 1001.58 1002.86 1004.16 1004.45 1004.77
1018.28 1017.41 1016.56 1015.75 1015.02 1014.28 1013.57 1012.96 1012.60 1012.45 1012.29 1012.04 1012.05 1012.06 1010.52 1007.11 1005.14 1006.09 1006.34 1006.96 1006.23 1006.11 1005.45 1004.77 1004.39 1003.78 1002.91 1002.09 1001.26 1000.80 1001.04 1000.27 1000.55 1000.45 1000.17 999.69 999.46 1000.31 1000.29 1001.58 1002.14 1003.20 1004.02 1004.44 1004.77
1018.13 1017.28 1016.31 1015.42 1014.58 1013.83 1013.04 1012.46 1012.05 1011.91 1011.77 1011.70 1011.60 1011.14 1008.47 1005.82 1005.14 1005.27 1005.74 1005.75 1005.45 1005.02 1004.71 1004.52 1004.03 1003.89 1003.61 1002.30 1001.93 1001.56 1001.23 1000.37 1000.39 1000.37 1000.21 1000.39 999.79 1000.11 1000.49 1001.80 1002.28 1003.35 1003.99 1004.34 1004.85
1018.11 1017.11 1016.03 1015.13 1014.19 1013.37 1012.56 1011.87 1011.56 1011.34 1011.23 1011.24 1011.29 1010.11 1007.08 1004.88 1004.93 1005.17 1005.32 1005.02 1005.10 1005.01 1004.73 1004.62 1004.90 1004.24 1003.44 1002.80 1002.73 1002.08 1001.60 1000.26 999.79 1000.18 1000.40 1000.77 999.53 999.92 1000.87 1001.83 1002.32 1003.13 1003.65 1004.18 1004.76
1018.15 1017.03 1015.93 1014.85 1013.90 1013.02 1012.13 1011.46 1011.08 1010.89 1010.86 1010.97 1010.57 1008.83 1005.65 1005.80 1005.35 1004.88 1004.85 1004.67 1004.90 1005.01 1004.99 1005.34 1004.97 1004.10 1003.87 1003.27 1002.76 1001.69 1000.41 999.87 998.88 999.27 999.95 1000.65 999.61 999.09 1000.13 1001.17 1001.95 1002.62 1003.16 1003.71 1004.47
1018.09 1016.96 1015.93 1014.74 1013.62 1012.60 1011.62 1011.34 1011.04 1011.00 1010.68 1009.71 1008.42 1007.40 1005.12 1004.12 1004.05 1004.31 1004.49 1004.60 1004.34 1004.69 1004.80 1005.07 1004.36 1003.71 1003.13 1002.60 1000.76 1000.34 1000.08 999.16 998.56 998.45 999.93 999.81 1000.00 999.26 999.09 1000.09 1001.41 1001.91 1002.66 1003.24 1003.95
1018.06 1016.83 1015.56 1014.73 1013.37 1012.21 1011.23 1010.42 1010.28 1009.66 1008.23 1006.37 1005.32 1004.66 1004.15 1004.20 1004.61 1004.17 1004.03 1004.36 1004.17 1004.24 1003.95 1003.79 1003.18 1001.99 1001.99 1001.70 1001.20 1000.19 999.61 999.03 998.28 998.26 999.19 999.65 999.46 999.79 999.28 1000.08 1000.75 1001.44 1001.78 1002.57 1003.36
1017.92 1016.84 1015.53 1014.48 1013.38 1011.71 1011.47 1009.31 1010.12 1009.98 1007.67 1005.38 1004.43 1004.09 1003.92 1003.76 1003.79 1003.41 1003.63 1003.99 1003.76 1003.30 1003.24 1002.67 1001.97 1001.66 1001.14 1000.90 1000.99 1000.86 999.94 999.44 999.03 998.95 999.50 999.67 999.45 999.40 999.13 999.32 1000.29 1000.73 1001.14 1001.68 1002.59
1017.74 1016.70 1015.37 1013.97 1012.95 1011.67 1010.26 1010.17 1009.66 1009.44 1007.58 1003.66 1003.54 1003.29 1003.38 1003.81 1003.41 1002.61 1003.22 1003.30 1002.94 1002.84 1002.18 1001.47 1000.84 1000.83 1000.88 1000.81 1001.36 1001.01 1000.40 999.88 999.51 999.35 1000.03 1000.69 999.65 999.06 998.96 999.10 999.50 999.89 1000.43 1001.06 1001.60
1017.87 1016.55 1015.23 1013.68 1013.09 1010.27 1009.50 1009.77 1009.28 1009.32 1006.60 1003.19 1003.16 1002.77 1003.23 1003.19 1002.86 1002.67 1002.61 1002.93 1002.62 1002.02 1001.70 1000.99 1001.04 1000.89 1001.10 1001.14 1001.24 1000.45 1000.51 1000.48 1000.02 999.76 999.41 1000.51 998.83 998.27 998.46 998.25 998.89 999.39 1000.07 1000.57 1000.96
1018.02 1016.50 1015.23 1015.10 1012.78 1010.05 1010.60 1009.82 1009.52 1009.19 1005.17 1003.11 1002.57 1003.05 1002.69 1002.72 1002.18 1002.15 1002.40 1002.55 1001.91 1001.75 1001.72 1000.61 1000.76 1000.69 1001.07 1000.79 1000.78 1000.61 1000.35 1000.30 1000.58 1000.02 1000.24 999.35 998.83 997.15 996.34 997.13 997.90 998.76 999.52 999.98 1000.47
1017.88 1016.54 1015.54 1013.21 1011.54 1010.69 1010.37 1009.90 1009.53 1007.54 1003.55 1002.82 1002.77 1002.47 1002.08 1002.04 1002.02 1002.27 1002.36 1002.67 1002.41 1002.06 1001.36 1001.26 1000.57 1000.77 1000.77 1000.73 1000.75 1001.21 1001.17 1001.19 1000.99 1000.50 999.83 998.85 998.04 996.77 996.18 996.20 997.03 997.89 998.62 999.25 999.76
1017.55 1016.32 1015.91 1013.55 1011.89 1011.18 1010.36 1009.11 1007.63 1005.15 1003.36 1003.07 1003.14 1003.32 1002.61 1001.87 1001.94 1002.18 1002.18 1002.37 1002.14 1001.89 1001.20 1000.92 1000.70 1000.58 1001.25 1000.61 1001.27 1001.75 1001.56 1000.99 1000.66 999.85 998.48 998.37 997.61 996.58 996.18 996.64 996.30 997.29 998.19 999.27 1000.03
1017.46 1015.84 1013.95 1012.54 1012.22 1011.37 1010.33 1008.69 1006.78 1004.69 1004.02 1004.22 1004.61 1003.97 1003.14 1002.08 1002.11 1001.98 1002.14 1001.56 1001.73 1001.67 1000.86 1000.09 999.77 999.73 1000.33 1000.67 1000.42 1000.87 1001.08 1000.22 999.83 998.73 997.67 997.29 996.60 996.13 996.25 996.90 998.08 998.63 999.27 999.98 1000.55
1016.81 1013.62 1012.67 1012.80 1012.30 1011.54 1010.09 1007.79 1006.05 1006.38 1006.84 1006.46 1005.91 1004.51 1003.28 1002.65 1003.29 1002.42 1002.18 1001.52 1001.09 1000.76 1001.13 1000.68 999.62 998.94 999.00 999.90 1000.86 1000.11 999.97 1000.37 999.93 999.14 997.96 996.51 996.52 997.14 997.84 997.88 998.30 999.12 999.92 1000.20 1000.75
1016.90 1013.67 1012.58 1012.82 1012.10 1011.29 1009.80 1008.05 1007.42 1008.74 1009.02 1008.22 1007.03 1005.77 1004.51 1003.28 1003.21 1003.40 1002.63 1001.99 1002.15 1003.29 1003.27 1002.44 1001.22 1000.13 999.33 1000.29 1000.11 1000.07 999.97 1000.01 1000.29 999.99 998.80 997.58 996.41 995.92 996.71 997.80 998.61 999.13 999.75 1000.35 1001.16
1015.92 1013.04 1012.92 1012.55 1011.65 1010.37 1009.19 1009.15 1009.97 1010.46 1010.64 1010.05 1008.78 1007.80 1006.84 1005.83 1005.07 1004.59 1003.96 1004.81 1005.48 1004.80 1005.02 1004.00 1002.87 1001.73 1000.63 999.86 1000.18 1000.29 1000.43 1000.38 1000.49 1000.48 999.60 998.26 996.82 996.12 996.20 997.26 998.04 999.14 999.69 1000.40 1000.87
1016.02 1012.90 1013.61 1012.72 1010.55 1010.66 1010.60 1012.26 1012.68 1011.50 1011.82 1011.35 1010.84 1010.07 1009.20 1008.58 1007.65 1006.82 1006.42 1006.26 1007.77 1007.22 1006.50 1005.61 1004.42 1002.53 1001.00 1000.30 999.93 1000.18 1000.23 1000.40 1000.73 1000.65 1000.03 998.88 997.45 996.88 997.23 997.65 998.47 999.17 999.91 1000.65 1000.95
1017.63 1015.30 1014.61 1013.23 1012.50 1012.86 1013.01 1013.33 1013.04 1013.25 1013.51 1013.17 1012.64 1011.91 1011.52 1010.86 1010.21 1008.78 1008.42 1008.51 1009.49 1009.00 1009.77 1009.15 1006.68 1004.72 1002.69 1001.64 1000.63 1000.84 1000.50 1000.77 1000.67 1000.80 1000.14 999.25 997.80 997.47 997.85 998.46 999.03 999.77 1000.08 1000.79 1001.30
1018.48 1016.29 1015.70 1015.20 1015.85 1016.14 1015.30 1014.39 1014.41 1014.63 1014.87 1014.71 1014.56 1013.95 1013.15 1012.60 1012.13 1010.76 1009.75 1009.17 1010.18 1010.64 1011.46 1011.37 1009.38 1007.19 1004.48 1002.45 1001.97 1001.31 1001.30 1001.19 1001.11 1000.70 1000.62 999.29 998.40 998.11 997.85 998.38 999.31 999.92 1000.32 1000.59 1001.06
1019.78 1018.66 1019.63 1017.19 1017.06 1017.51 1016.96 1016.42 1015.79 1015.73 1015.99 1016.04 1015.52 1014.73 1014.54 1014.31 1013.51 1012.43 1011.77 1010.84 1010.62 1011.12 1011.62 1012.03 1010.56 1009.42 1007.37 1005.91 1004.43 1003.25 1003.22 1002.21 1002.23 1001.21 999.99 999.66 998.95 998.36 998.43 998.91 999.71 1000.92 1000.93 1000.46 1000.83
1021.38 1021.14 1020.47 1018.79 1018.77 1017.94 1017.26 1016.75 1017.15 1016.94 1017.18 1016.69 1016.38 1015.98 1015.80 1015.69 1015.44 1014.98 1014.35 1013.64 1013.03 1012.58 1012.64 1012.46 1011.37 1011.04 1009.00 1007.73 1006.44 1005.00 1004.20 1003.53 1002.79 1002.25 1001.20 1000.54 999.96 999.70 999.57 999.66 1000.54 1001.04 1001.38 1001.40 1001.37
1023.14 1023.08 1022.37 1020.11 1018.84 1018.21 1017.62 1018.08 1017.92 1017.85 1017.66 1017.25 1016.85 1016.51 1016.17 1016.12 1016.65 1016.26 1015.56 1015.27 1014.80 1014.30 1013.90 1013.71 1013.06 1012.26 1010.20 1009.18 1007.81 1006.28 1005.38 1003.98 1003.38 1003.09 1002.58 1001.37 1000.97 1001.35 1000.90 1000.88 1000.79 1001.03 1001.27 1001.45 1001.52
Wind_Speed
21 21 20 19 18 18 18 17 17 15 14 13 12 11 10 9 12 12 15 2 14 9 4 14 14 15 15 18 20 11 15 16 21 20 19 18 14 13 6 13 9 3 5 22 16
21 22 21 20 20 18 19 18 16 16 14 13 11 10 9 7 16 18 10 12 12 9 13 15 16 16 16 17 18 17 14 22 19 13 19 16 16 13 9 14 10 9 18 18 16
22 21 20 22 22 20 19 19 17 15 14 11 11 9 8 10 15 19 11 15 11 10 16 13 15 16 19 19 21 20 20 20 16 8 16 12 17 15 18 16 16 17 18 18 16
24 24 23 22 22 21 20 19 18 15 13 12 9 10 7 13 5 11 11 11 9 14 14 13 15 17 20 23 20 22 21 21 10 4 14 15 15 19 19 13 15 16 17 18 17
25 26 24 22 22 21 20 18 17 15 13 11 10 7 9 12 19 15 13 10 13 15 16 15 16 17 20 21 19 23 18 18 11 10 14 20 17 12 19 8 12 18 16 16 14
25 25 26 25 23 21 20 17 14 13 12 10 9 6 11 16 7 16 14 15 16 15 16 16 12 16 19 21 18 14 18 18 13 13 15 17 16 16 16 12 12 18 17 15 15
25 26 26 26 25 22 20 17 14 12 10 9 8 9 14 14 2 9 13 15 13 13 9 13 10 7 11 18 15 17 15 16 16 16 11 15 17 16 12 13 14 17 15 14 14
26 26 26 28 26 23 20 17 13 11 9 9 8 12 12 7 6 9 15 14 7 9 10 2 9 14 13 12 6 14 17 19 21 18 15 16 20 19 16 13 17 17 16 16 16
27 28 28 28 26 24 20 16 10 6 6 8 9 14 14 6 13 12 15 14 12 9 10 2 12 13 13 14 15 17 18 24 22 21 15 17 15 20 22 17 16 17 16 16 16
28 28 29 28 28 24 21 8 4 6 8 10 11 8 10 9 15 16 16 15 13 11 11 13 10 13 14 16 17 17 20 21 22 19 17 18 19 19 16 21 19 17 17 16 17
29 29 29 29 27 25 17 6 7 9 13 13 4 13 1 3 4 12 14 14 13 12 16 17 15 17 20 20 21 22 20 21 20 17 19 20 20 21 19 13 14 18 17 18 17
31 30 31 28 25 26 12 8 7 8 13 16 15 15 15 4 7 14 17 17 17 17 18 17 16 18 19 18 20 22 21 20 17 17 8 14 20 21 21 19 20 19 18 19 19
32 32 31 29 27 11 3 9 8 5 9 9 6 8 6 12 17 14 16 20 17 19 19 19 13 6 16 10 15 17 20 20 18 13 9 15 22 22 19 20 19 19 18 19 20
32 33 30 31 7 7 3 13 9 2 9 9 11 6 10 6 11 19 17 20 20 20 19 17 18 9 14 17 17 19 19 17 19 18 14 19 18 24 24 23 22 18 18 19 19
32 33 32 16 12 8 13 13 10 6 8 4 9 5 3 10 5 14 14 19 21 17 13 16 17 12 16 17 15 16 15 17 18 14 19 21 15 14 12 26 23 21 21 20 20
34 31 28 1 9 13 15 14 6 10 9 8 0 3 10 12 8 4 14 15 12 20 18 18 13 11 15 17 13 7 9 12 13 15 17 23 21 14 15 20 18 16 19 21 21
35 29 19 10 10 16 13 9 9 10 5 4 2 4 9 10 8 8 14 18 17 15 20 20 23 16 14 12 9 13 12 11 13 15 19 20 21 15 3 5 4 12 8 4 7
37 28 5 5 13 14 11 11 12 10 10 7 8 11 15 8 11 9 15 15 22 24 17 18 20 25 18 21 17 20 18 11 17 14 17 23 17 15 11 13 8 5 7 3 6
35 4 3 11 15 10 9 10 7 11 10 12 15 18 18 16 10 10 17 19 18 16 25 17 23 14 21 20 19 21 16 20 21 18 14 10 14 9 4 5 5 9 8 7 2
11 6 7 19 15 8 10 15 8 7 12 12 15 14 15 16 11 17 16 7 9 2 4 11 18 19 13 11 17 19 17 13 9 16 20 17 19 10 20 17 16 16 10 7 3
7 6 12 22 12 8 9 10 9 11 10 10 15 18 18 18 18 16 18 9 6 7 8 13 15 18 23 15 19 16 16 15 12 15 16 15 15 18 15 11 10 9 11 6 3
9 5 14 14 6 4 8 8 6 11 13 12 10 14 15 16 20 17 19 12 10 9 11 8 10 19 26 25 18 19 23 23 14 21 15 15 14 9 5 3 3 9 7 3 1
9 4 9 14 7 10 11 14 10 11 12 13 13 17 12 15 12 12 16 5 7 8 12 14 7 15 20 19 20 16 20 18 16 15 22 18 16 18 11 11 8 9 4 8 5
7 7 6 4 6 12 12 11 12 11 10 10 15 16 14 13 15 15 15 11 5 5 8 8 12 17 16 20 17 25 21 23 22 18 20 22 22 23 14 7 7 10 13 10 10
5 4 4 9 9 10 9 10 10 13 10 11 13 16 14 15 17 18 20 20 13 8 6 7 19 21 23 26 27 24 24 15 16 19 23 22 26 22 20 11 6 13 13 10 11
7 7 10 10 7 8 3 9 13 12 15 16 16 15 15 15 18 18 23 21 19 19 19 16 19 21 27 26 25 27 25 23 21 26 22 22 24 25 23 20 12 9 10 10 11
3 2 7 6 6 7 8 10 14 13 12 13 17 17 18 19 16 17 17 16 18 19 18 18 16 17 20 23 26 26 29 31 30 27 23 25 24 21 23 22 19 17 16 16 15
Wind_Direction
352 349 345 340 336 332 328 325 322 318 314 308 308 310 306 302 284 228 238 222 194 152 232 229 218 226 230 237 233 236 256 250 246 242 270 135 194 186 93 126 154 123 97 124 152
351 347 341 337 332 328 324 321 318 313 308 305 303 302 301 309 276 257 211 114 133 162 217 218 216 218 220 226 226 231 231 247 256 262 239 151 205 177 172 161 144 149 106 138 158
348 345 340 335 331 326 321 318 314 309 304 298 296 292 292 293 269 237 115 130 146 197 243 245 240 223 231 228 222 223 243 260 278 300 298 155 206 172 208 178 170 158 148 156 164
345 342 338 334 329 323 317 316 311 306 300 293 285 287 282 258 264 93 124 127 168 224 228 227 232 229 236 235 232 232 246 250 289 282 258 260 208 174 217 195 167 156 160 161 173
341 338 335 331 327 322 316 311 307 303 296 289 280 273 258 224 253 128 133 155 189 212 220 213 224 224 232 241 234 238 243 243 235 263 237 246 203 185 218 120 144 146 167 170 180
340 336 333 331 328 323 317 308 299 293 287 277 274 270 238 250 59 136 169 175 202 211 214 219 221 236 243 249 242 237 243 254 244 231 231 240 209 197 199 155 169 157 177 180 175
339 336 333 330 327 325 319 309 295 282 270 257 251 247 258 248 341 175 185 194 207 218 204 224 262 248 248 258 257 251 269 237 245 231 211 238 213 187 181 172 181 176 187 184 180
338 335 333 330 328 325 321 312 297 270 239 231 231 244 260 215 198 209 194 209 198 209 264 145 238 244 249 254 267 242 240 247 220 219 213 203 222 180 181 182 193 193 190 189 183
337 335 333 331 328 324 320 312 290 227 202 205 225 225 265 111 216 207 201 213 197 216 217 161 248 239 207 246 229 217 234 228 240 195 208 207 234 201 205 179 210 196 203 195 190
339 335 333 331 327 322 316 285 346 180 214 212 260 253 240 235 186 209 207 222 205 210 208 217 224 222 229 219 225 221 223 245 223 188 207 218 234 249 205 181 206 217 205 204 205
339 336 333 330 325 317 316 195 209 200 201 269 272 259 138 176 202 219 198 209 213 218 221 200 224 220 227 222 245 262 237 228 252 215 204 232 231 230 245 211 230 216 221 208 210
339 336 332 327 320 311 285 19 32 324 294 279 248 257 268 228 252 217 194 209 207 224 216 237 227 250 235 236 226 244 258 258 236 223 221 245 241 243 236 221 212 226 225 219 204
338 336 332 325 318 289 40 16 322 296 263 281 207 231 207 220 231 221 199 211 217 227 239 233 230 202 252 226 244 237 240 239 248 222 221 247 257 246 235 239 234 235 229 228 214
339 335 333 324 297 339 73 348 323 316 270 142 188 163 194 232 224 235 190 226 228 240 235 239 242 214 246 235 218 239 222 245 249 230 223 208 250 229 231 227 226 219 228 225 215
339 335 328 331 311 11 340 325 328 239 275 89 121 63 202 241 40 198 216 226 237 223 255 234 230 227 237 232 231 243 263 211 240 238 243 251 233 260 249 210 219 217 222 220 215
337 335 329 123 254 357 323 317 253 235 237 129 260 229 246 195 220 113 209 236 235 253 240 251 269 239 240 234 237 254 239 251 245 240 233 235 242 233 241 207 201 213 213 221 222
334 328 318 292 343 325 317 275 245 246 106 120 300 287 284 267 236 228 195 210 223 223 239 230 241 221 241 244 197 232 227 228 221 224 236 234 237 243 267 356 201 200 180 179 230
328 316 235 310 335 326 300 259 259 292 313 87 293 287 275 286 239 219 247 231 213 245 252 231 228 222 200 229 228 202 229 218 234 236 238 217 231 240 263 153 161 157 187 204 238
315 322 275 353 328 312 278 257 295 11 11 336 314 274 261 246 247 227 243 245 244 228 237 258 255 267 214 200 229 244 208 248 265 275 275 268 190 221 150 240 175 185 216 215 195
318 299 54 340 327 282 262 264 333 39 343 311 291 303 294 290 212 266 249 286 248 261 322 261 270 269 228 226 232 240 267 225 231 253 252 250 256 209 183 187 187 204 191 151 167
279 288 21 337 304 240 262 17 344 355 348 326 313 306 301 298 296 286 287 75 358 291 268 271 257 248 262 200 235 219 240 249 253 227 243 253 249 241 182 168 174 191 174 155 174
308 335 6 326 288 4 358 353 337 331 331 313 298 289 291 294 287 289 276 318 8 324 286 291 268 245 238 253 236 234 254 225 231 241 251 260 252 111 63 119 156 174 142 267 200
331 323 18 342 17 352 345 326 320 345 345 322 313 311 324 305 293 269 267 99 21 5 16 353 262 258 250 247 253 254 236 248 260 231 232 244 240 258 258 195 178 221 243 187 218
317 339 3 5 69 342 349 322 333 341 321 355 316 296 289 295 296 278 268 261 138 281 52 320 268 275 263 256 247 239 235 245 239 244 226 243 246 244 244 169 201 212 213 223 197
5 81 8 323 359 333 325 308 330 328 335 329 322 313 317 315 300 293 302 302 278 227 261 268 276 277 271 276 282 284 258 237 270 270 238 244 253 247 256 226 60 26 301 222 221
344 345 340 290 312 303 267 359 329 325 323 312 299 314 311 296 298 298 302 304 291 305 304 291 272 273 273 269 264 269 269 274 257 244 252 256 261 276 292 300 295 275 263 272 285
9 162 327 305 319 308 7 323 317 313 303 299 300 301 298 305 328 287 292 281 277 280 280 275 278 277 276 272 265 256 253 254 257 260 260 253 256 266 268 275 276 277 269 264 264